Location: Ariel
(45.9570°N, 122.5700°W)
Time: 17:33:06
(UTC-07:00)

Tiros 1 - Pass Details

Date: 26 July 2019
Orbit: 631 x 664 km, 48.4° (Epoch: 23 August)

Event Time Altitude Azimuth Distance (km) Brightness Sun altitude
Rises 15:53:09 0° 288° (WNW) 2,998 11.0 48.3°
Reaches altitude 10° 15:55:31 10° 288° (WNW) 2,085 10.4 48.0°
Maximum altitude 16:00:20 82° 202° (SSW) 674 8.3 47.2°
Drops below altitude 10° 16:05:08 10° 115° (ESE) 2,073 9.6 46.5°
Sets 16:07:28 0° 114° (ESE) 2,980 10.3 46.1°
